User: anonymous   Login
Location: Bushey
(51.6333°N, 0.3667°W)
Time: 22:55:37
(UTC+00:00)
Language:

Meteor 2-4 Rocket - Orbit

View from above orbital plane
View from above orbital plane
View from above satellite
View from above satellite

Ground track
Ground track

The orbit data is extracted from the following two-line orbital elements,

1 11289U 79021B   21128.53837305 -.00000027  00000-0 -21420-4 0  9992
2 11289  81.2488 217.4097 0075979 159.4897 200.9355 14.11620474171366
Epoch (UTC): 08 May 2021 12:55:15
Eccentricity: 0.0075979
inclination: 81.2488°
perigee height: 799 km
apogee height: 909 km
right ascension of ascending node: 217.4097°
argument of perigee: 159.4897°
revolutions per day: 14.11620474
mean anomaly at epoch: 200.9355°
orbit number at epoch: 17136

The dashed part of the orbit path shows where the satellite is in the earth's shadow,  

DLR